Tracking 21094 objects as of 12-Aug-2020
HD Live streaming from Space Station
objects crossing your sky now
Track the most recent launched group of Starlink satellites

DMSP 5D-2 F11 DEB

Track DMSP 5D-2 F11 DEB now!
10-day predictions


NORAD ID: 28333
Int'l Code: 1991-082AW
Perigee: 768.8 km
Apogee: 780.6 km
Inclination: 98.6 °
Period: 100.2 minutes
Semi major axis: 7145 km
RCS: 0.0092 m2 (small)
Launch date: November 28, 1991
Source: United States (US)
Launch site: AIR FORCE WESTERN TEST RANGE (AFWTR)

Note: This is SATELLITE DEBRIS
aabbcc
Your satellite tracking list
Your tracking list is empty




NASA's NSSDC Master Catalog

Two Line Element Set (TLE):
1 28333U 91082AW  20223.36662215 +.00000716 +00000-0 +25533-3 0  9994
2 28333 098.6395 268.3491 0008235 279.8272 136.9175 14.37264309846536
Source of the keplerian elements: AFSPC